Meteo pe oră la Dziurdzioly

Astăzi, 2 Martie, Marţi

Timp Temperatura Precipitaţii Vânt Presiune Umiditate
00:00 -1°C° 0 mm 4 m/s 761 mmHg 93%
01:00 -1°C° 0 mm 4 m/s 761 mmHg 93%
02:00 -1°C° 0 mm 4 m/s 760 mmHg 93%
03:00 -1°C° 0 mm 4 m/s 760 mmHg 93%
04:00 -1°C° 0 mm 4 m/s 760 mmHg 93%
05:00 -1°C° 0 mm 4 m/s 760 mmHg 93%
06:00 -1°C° 0 mm 4 m/s 760 mmHg 93%
07:00 -1°C° 0 mm 4 m/s 760 mmHg 93%
08:00 +1°C° 0 mm 5 m/s 760 mmHg 87%
09:00 +2°C° 0 mm 5 m/s 760 mmHg 81%
10:00 +5°C° 0 mm 5 m/s 759 mmHg 74%
11:00 +6°C° 0 mm 5 m/s 759 mmHg 70%
12:00 +7°C° 0 mm 5 m/s 759 mmHg 65%
13:00 +8°C° 0 mm 5 m/s 759 mmHg 60%
14:00 +8°C° 0 mm 5 m/s 759 mmHg 61%
15:00 +8°C° 0 mm 5 m/s 759 mmHg 61%
16:00 +8°C° 0 mm 4 m/s 758 mmHg 62%
17:00 +7°C° 0 mm 4 m/s 758 mmHg 68%
18:00 +5°C° 0 mm 3 m/s 759 mmHg 75%
19:00 +4°C° 0 mm 3 m/s 759 mmHg 81%
20:00 +4°C° 0 mm 3 m/s 759 mmHg 83%
21:00 +4°C° 0 mm 2 m/s 759 mmHg 85%
22:00 +3°C° 0 mm 2 m/s 759 mmHg 87%
23:00 +3°C° 0 mm 2 m/s 760 mmHg 87%

Mâine, 3 Martie, Miercuri

Timp Temperatura Precipitaţii Vânt Presiune Umiditate
00:00 +4°C° 0 mm 1 m/s 760 mmHg 88%
01:00 +3°C° 0 mm 1 m/s 760 mmHg 88%
02:00 +3°C° 0 mm 1 m/s 759 mmHg 89%
03:00 +3°C° 0 mm 1 m/s 759 mmHg 89%
04:00 +2°C° 0 mm 1 m/s 758 mmHg 89%
05:00 +2°C° 0 mm 0 m/s 759 mmHg 91%
06:00 +2°C° 0 mm 0 m/s 759 mmHg 91%
07:00 +2°C° 0 mm 0 m/s 759 mmHg 91%
08:00 +4°C° 0 mm 1 m/s 758 mmHg 85%
09:00 +6°C° 0 mm 1 m/s 758 mmHg 79%
10:00 +7°C° 0 mm 1 m/s 758 mmHg 73%
11:00 +8°C° 0 mm 1 m/s 757 mmHg 68%
12:00 +9°C° 0 mm 2 m/s 757 mmHg 63%
13:00 +10°C° 0 mm 2 m/s 756 mmHg 58%
14:00 +10°C° 0 mm 2 m/s 756 mmHg 58%
15:00 +10°C° 0 mm 2 m/s 755 mmHg 57%
16:00 +10°C° 0 mm 2 m/s 754 mmHg 57%
17:00 +9°C° 0 mm 2 m/s 754 mmHg 60%
18:00 +7°C° 0 mm 2 m/s 753 mmHg 64%
19:00 +6°C° 0 mm 2 m/s 753 mmHg 67%
20:00 +5°C° 0 mm 2 m/s 752 mmHg 68%
21:00 +4°C° 0 mm 3 m/s 752 mmHg 70%
22:00 +4°C° 0 mm 3 m/s 751 mmHg 71%
23:00 +3°C° 0 mm 3 m/s 751 mmHg 74%

Poimâine, 4 Martie, Joi

Timp Temperatura Precipitaţii Vânt Presiune Umiditate
00:00 +3°C° 0 mm 3 m/s 750 mmHg 77%
01:00 +3°C° 0 mm 4 m/s 750 mmHg 80%
02:00 +1°C° 0 mm 4 m/s 749 mmHg 81%
03:00 +1°C° 0 mm 4 m/s 748 mmHg 83%
04:00 +1°C° 0 mm 4 m/s 747 mmHg 84%
05:00 +1°C° 0 mm 5 m/s 747 mmHg 85%
06:00 +1°C° 0 mm 5 m/s 747 mmHg 85%
07:00 +1°C° 0 mm 5 m/s 746 mmHg 86%
08:00 +3°C° 0 mm 5 m/s 746 mmHg 83%
09:00 +4°C° 0 mm 6 m/s 746 mmHg 81%
10:00 +5°C° 0 mm 6 m/s 745 mmHg 78%
11:00 +7°C° 0 mm 6 m/s 745 mmHg 76%
12:00 +7°C° 0 mm 6 m/s 745 mmHg 75%
13:00 +8°C° 0 mm 6 m/s 745 mmHg 73%
14:00 +8°C° 0 mm 6 m/s 744 mmHg 72%
15:00 +7°C° 0 mm 5 m/s 744 mmHg 71%
16:00 +7°C° 0 mm 5 m/s 743 mmHg 71%
17:00 +7°C° 0 mm 4 m/s 743 mmHg 75%
18:00 +7°C° 0 mm 3 m/s 743 mmHg 79%
19:00 +5°C° 0 mm 3 m/s 743 mmHg 84%
20:00 +6°C° 0.2 mm 2 m/s 743 mmHg 86%
21:00 +5°C° 0.2 mm 2 m/s 742 mmHg 88%
22:00 +5°C° 0.2 mm 2 m/s 742 mmHg 90%
23:00 +4°C° 0.3 mm 2 m/s 742 mmHg 91%

5 Martie, Vineri

Timp Temperatura Precipitaţii Vânt Presiune Umiditate
00:00 +3°C° 0.3 mm 2 m/s 742 mmHg 93%
01:00 +2°C° 0.3 mm 3 m/s 742 mmHg 95%
02:00 +1°C° 0.4 mm 3 m/s 742 mmHg 95%
03:00 +1°C° 0.4 mm 3 m/s 742 mmHg 95%
04:00 -1°C° 0.4 mm 4 m/s 742 mmHg 95%
05:00 -1°C° 0.2 mm 4 m/s 742 mmHg 94%
06:00 -2°C° 0.2 mm 5 m/s 743 mmHg 93%
07:00 -2°C° 0.2 mm 5 m/s 744 mmHg 92%
08:00 -2°C° 0.1 mm 5 m/s 744 mmHg 88%
09:00 -2°C° 0.1 mm 5 m/s 745 mmHg 83%
10:00 -2°C° 0.1 mm 5 m/s 745 mmHg 79%
11:00 -1°C° 0.1 mm 5 m/s 746 mmHg 72%
12:00 0°C° 0.1 mm 5 m/s 747 mmHg 66%
13:00 0°C° 0.1 mm 5 m/s 747 mmHg 59%
14:00 0°C° 0 mm 4 m/s 747 mmHg 55%
15:00 0°C° 0 mm 4 m/s 748 mmHg 52%
16:00 0°C° 0 mm 4 m/s 748 mmHg 48%
17:00 -1°C° 0 mm 4 m/s 748 mmHg 53%
18:00 -1°C° 0 mm 3 m/s 749 mmHg 58%
19:00 -2°C° 0 mm 2 m/s 750 mmHg 64%
20:00 -2°C° 0 mm 3 m/s 750 mmHg 66%
21:00 -2°C° 0 mm 3 m/s 751 mmHg 68%
22:00 -2°C° 0 mm 3 m/s 752 mmHg 70%
23:00 -2°C° 0 mm 3 m/s 752 mmHg 70%

6 Martie, Sâmbătă

Timp Temperatura Precipitaţii Vânt Presiune Umiditate
00:00 -4°C° 0 mm 3 m/s 752 mmHg 70%
01:00 -4°C° 0 mm 3 m/s 753 mmHg 70%
02:00 -4°C° 0 mm 3 m/s 753 mmHg 71%
03:00 -4°C° 0 mm 3 m/s 754 mmHg 71%
04:00 -4°C° 0 mm 3 m/s 754 mmHg 72%
05:00 -4°C° 0 mm 3 m/s 754 mmHg 70%
06:00 -4°C° 0 mm 4 m/s 755 mmHg 68%
07:00 -4°C° 0 mm 4 m/s 756 mmHg 67%
08:00 -3°C° 0 mm 4 m/s 756 mmHg 60%
09:00 -2°C° 0 mm 4 m/s 756 mmHg 54%
10:00 -2°C° 0 mm 4 m/s 757 mmHg 47%
11:00 -1°C° 0 mm 4 m/s 757 mmHg 44%
12:00 0°C° 0 mm 4 m/s 757 mmHg 41%
13:00 0°C° 0 mm 4 m/s 757 mmHg 38%
14:00 0°C° 0 mm 4 m/s 757 mmHg 40%
15:00 0°C° 0 mm 4 m/s 758 mmHg 41%
16:00 -1°C° 0 mm 4 m/s 758 mmHg 43%
17:00 -1°C° 0 mm 3 m/s 758 mmHg 48%
18:00 -2°C° 0 mm 3 m/s 758 mmHg 52%
19:00 -3°C° 0 mm 2 m/s 759 mmHg 57%
20:00 -3°C° 0 mm 2 m/s 759 mmHg 57%
21:00 -3°C° 0 mm 2 m/s 759 mmHg 58%
22:00 -3°C° 0 mm 2 m/s 759 mmHg 58%
23:00 -4°C° 0 mm 3 m/s 759 mmHg 58%

7 Martie, Duminică

Timp Temperatura Precipitaţii Vânt Presiune Umiditate
00:00 -4°C° 0 mm 3 m/s 759 mmHg 58%
01:00 -4°C° 0 mm 3 m/s 759 mmHg 58%
02:00 -4°C° 0 mm 3 m/s 759 mmHg 58%
03:00 -4°C° 0 mm 4 m/s 759 mmHg 58%
04:00 -4°C° 0 mm 4 m/s 758 mmHg 58%
05:00 -4°C° 0 mm 4 m/s 758 mmHg 58%
06:00 -5°C° 0 mm 5 m/s 758 mmHg 57%
07:00 -4°C° 0 mm 5 m/s 758 mmHg 57%
08:00 -3°C° 0 mm 6 m/s 758 mmHg 52%
09:00 -2°C° 0 mm 6 m/s 757 mmHg 46%
10:00 -1°C° 0 mm 7 m/s 757 mmHg 41%
11:00 0°C° 0 mm 7 m/s 757 mmHg 42%
12:00 +2°C° 0 mm 7 m/s 756 mmHg 43%
13:00 +2°C° 0 mm 7 m/s 756 mmHg 44%
14:00 +2°C° 0 mm 7 m/s 755 mmHg 47%
15:00 +2°C° 0 mm 6 m/s 755 mmHg 51%
16:00 +1°C° 0 mm 6 m/s 754 mmHg 55%
17:00 0°C° 0 mm 5 m/s 754 mmHg 60%
18:00 -1°C° 0 mm 4 m/s 753 mmHg 64%
19:00 -2°C° 0 mm 4 m/s 753 mmHg 69%
20:00 -2°C° 0 mm 4 m/s 753 mmHg 69%
21:00 -2°C° 0 mm 4 m/s 753 mmHg 68%
22:00 -2°C° 0 mm 5 m/s 752 mmHg 68%
23:00 -2°C° 0 mm 5 m/s 752 mmHg 70%
Arată mai mult

Formular de consimțământ

Meteoprog și furnizorii noștri de servicii pot stoca și accesa date personale, precum cookies, identificatori de dispozitiv sau alte tehnologii similare pe dispozitivul dumneavoastră și procesa astfel de date pentru a personaliza conținutul și reclamele, dar și pentru a oferi caracteristici de social media și pentru a analiza traficul.

  • Stocarea și/sau accesarea informațiilor pe dispozitivul dumneavoastră

    Cookies, identificatori de dispozitiv sau alte informații pot fi stocate sau accesate pe dispozitiv în scopurile indicate mai sus.

  • Reclame și conținut personalizat, evaluarea reclamelor și a conținutului, informații despre audiențe și dezvoltarea produselor

    Reclamele și conținutul pot fi personalizate pe baza unui profil. Pot fi adăugate date suplimentare pentru a personaliza mai bine reclamele și conținutul. Performanța reclamelor și conținutului poate fi măsurată. Pot fi obținute informații despre utilizatorii care au văzut reclamele și conținutul. Aceste date pot fi utilizate pentru a dezvolta sau îmbunătăți experiența utilizatorilor, sistemele și software-ul.

Dând clic pe ‘Sunt de acord’, permiteți utilizarea cookie-urilor menționate, a identificatorilor de dispozitiv, balizelor web sau altor tehnologii similare. Setările pot fi modificate din browser-ul dispozitivului dumneavoastră.

În anumite scopuri, interesele legitime pot prima asupra consimțământului. Puteți citi mai multe informații în acest sens în Politica privind Confidențialitatea Datelor și Cookie.